EHI
16 19 20 13 5 1 0 0 0 0 0 0 0 0 0 0 0 0 0 0 1 2 2 2 1 0 0 0 0 1 2 2 1 0 0 0 0 0 0 0 0 0 0 0 0 0 0 0 0
16 15 14 10 4 0 0 0 0 0 0 0 0 0 0 0 0 0 0 0 1 1 1 2 2 1 0 0 0 0 1 2 1 0 0 0 0 0 0 0 0 0 0 0 0 0 0 0 0
17 13 9 6 2 0 0 0 0 0 0 0 0 0 0 0 0 0 0 0 0 1 1 3 3 2 1 1 0 1 2 2 1 0 0 0 0 0 0 0 0 0 0 0 0 0 0 0 0
14 10 5 2 1 0 0 0 0 0 0 0 0 0 0 0 0 0 0 0 0 1 2 4 5 4 4 2 1 1 2 2 1 0 0 0 0 0 0 0 0 0 0 0 0 0 0 0 0
8 5 2 0 0 0 0 0 0 0 0 0 0 0 0 0 0 0 0 0 0 1 3 5 7 8 7 5 3 1 1 1 1 0 0 0 0 0 0 0 0 0 0 0 0 0 0 0 0
3 2 1 0 0 0 0 0 0 0 0 0 0 0 0 0 1 1 1 1 1 1 3 4 6 9 9 8 5 1 0 0 0 0 0 0 0 0 0 0 0 0 0 0 0 0 0 0 0
1 1 0 0 0 0 0 0 0 0 0 0 0 0 0 1 2 2 2 2 2 3 3 2 4 6 8 8 6 3 1 1 2 2 1 1 1 1 0 0 0 0 0 0 0 0 0 0 0
0 0 0 0 0 0 0 0 0 0 0 0 0 0 0 1 2 2 3 3 3 3 3 3 3 4 4 5 5 4 4 3 3 3 2 2 2 1 0 0 0 0 0 0 0 0 0 0 0
0 0 0 0 0 0 0 0 0 0 0 0 0 0 0 1 1 2 2 3 2 2 3 3 3 3 2 2 3 4 4 2 2 2 2 1 1 1 0 0 0 0 0 0 0 0 0 0 0
0 0 0 0 0 0 0 0 0 0 0 0 0 0 0 1 2 3 2 2 1 1 1 3 3 3 1 0 1 1 1 0 0 1 1 0 0 0 0 0 0 0 0 0 0 0 0 0 0
0 0 0 0 0 0 0 0 0 0 0 0 0 0 0 1 2 2 2 1 1 1 1 3 3 2 2 1 0 0 0 0 0 0 0 0 0 0 0 0 0 0 0 0 0 0 0 0 0
0 0 0 0 0 0 0 0 0 0 0 0 0 0 0 0 1 1 1 0 1 2 2 3 3 1 1 1 1 0 0 0 0 0 0 0 0 0 0 0 0 0 0 0 0 0 0 0 0
0 0 0 0 0 0 0 0 0 0 0 0 0 0 0 0 0 0 0 0 0 1 2 3 2 1 0 1 1 0 0 0 0 0 0 0 0 0 0 0 0 0 0 0 0 0 0 0 0
0 0 0 0 0 0 0 0 0 0 0 0 0 0 0 0 0 0 0 0 0 0 1 3 3 1 0 0 1 1 1 0 0 0 0 0 0 0 0 0 0 0 0 0 0 0 0 0 0
0 0 0 0 0 0 0 0 0 0 0 0 0 0 0 0 0 0 0 0 0 0 1 2 2 1 0 0 1 2 2 1 0 0 0 0 0 0 0 0 0 0 0 0 0 0 0 0 0
0 0 0 0 0 0 0 0 0 0 0 0 0 0 0 0 0 0 0 0 0 1 2 3 2 1 0 1 2 3 3 1 1 0 0 0 0 0 0 0 0 0 0 0 0 0 0 0 0
0 0 0 0 0 0 0 0 0 0 0 0 0 0 1 0 0 0 0 0 0 1 3 3 2 1 1 2 3 3 3 2 1 0 0 0 0 0 0 0 0 0 0 0 0 0 0 0 0
0 0 0 0 0 0 0 0 0 0 0 0 0 0 0 0 0 0 0 0 0 1 3 4 4 2 1 2 3 3 2 1 1 0 0 0 0 0 0 0 0 0 0 0 0 0 0 0 0
0 0 0 1 1 1 0 0 0 0 0 0 0 0 0 0 0 0 0 0 1 2 3 4 4 2 2 3 2 1 1 0 0 0 0 0 0 0 0 0 0 0 0 0 0 0 0 0 0
0 0 0 1 1 1 0 0 0 0 1 0 0 0 0 0 0 0 0 0 1 3 4 5 4 4 7 8 5 2 1 1 0 0 0 0 0 0 0 0 0 0 0 0 0 0 0 0 0
0 0 0 0 0 0 0 0 0 0 0 0 0 0 0 0 0 0 0 1 2 4 6 6 6 8 11 12 9 5 3 2 0 0 0 0 0 0 0 0 0 0 0 0 0 0 0 0 0
0 0 0 0 0 0 0 0 0 0 0 0 0 0 0 0 0 0 1 2 4 6 7 8 8 10 12 12 11 8 5 2 0 0 0 0 0 0 0 0 0 0 0 0 0 0 0 0 0
0 0 0 0 0 0 0 0 0 0 0 0 0 0 0 0 0 0 1 3 5 7 8 9 10 11 11 11 10 8 5 2 0 0 0 0 0 0 0 0 0 0 0 0 0 0 0 0 0
0 0 0 0 0 0 0 0 0 0 0 0 0 0 0 0 0 1 1 3 7 10 11 12 12 10 10 10 9 7 4 2 0 0 0 0 0 0 0 0 0 0 0 0 0 0 0 0 0
0 0 0 0 0 0 0 0 0 0 0 0 0 0 0 0 1 2 3 5 8 12 14 14 12 10 9 9 8 5 3 2 1 1 0 0 0 0 0 0 0 0 0 0 0 0 0 0 0
0 0 0 0 0 0 0 0 0 0 0 0 0 0 0 0 1 3 5 6 9 12 14 13 10 9 9 9 7 5 4 3 2 1 0 0 0 0 1 0 0 0 0 0 0 0 0 0 0
0 0 0 0 0 0 0 0 0 0 0 0 0 0 0 0 1 2 5 7 9 11 12 11 10 10 10 9 7 5 4 3 2 1 0 0 0 0 0 0 0 0 0 0 0 0 0 0 0
0 0 0 0 0 0 0 0 0 0 0 0 0 0 0 0 0 1 3 6 7 9 10 10 10 11 12 11 9 7 5 4 2 2 1 0 0 0 0 0 0 0 0 0 0 0 0 0 0
0 0 0 0 0 0 0 0 0 0 0 0 0 0 0 0 0 1 2 3 4 5 7 8 9 11 12 12 9 7 6 5 5 4 3 1 1 1 1 1 0 0 0 0 0 0 0 0 0
0 0 0 0 0 0 0 0 0 0 0 0 0 0 0 0 0 0 1 2 3 4 5 7 8 9 10 11 9 7 5 5 6 6 4 3 2 2 2 2 1 1 1 1 0 0 0 0 0
Wind_Speed
9 10 6 2 2 0 6 6 7 6 7 8 7 8 12 12 9 8 3 5 8 9 9 9 11 11 11 12 12 12 12 12 12 12 12 12 12 12 12 12 12 12 13 13 12 12 12 11 11
9 6 3 2 2 2 6 7 8 9 7 5 7 10 12 11 11 8 4 5 8 10 10 9 10 11 12 12 12 11 11 12 12 12 12 12 12 12 12 12 12 12 13 13 12 12 12 12 12
10 6 3 2 2 4 6 7 7 8 6 5 7 10 9 7 9 6 5 6 8 10 10 9 10 11 11 11 11 12 11 11 12 12 12 12 12 12 12 12 12 12 12 12 12 12 12 12 12
5 3 2 0 6 8 7 7 7 8 6 6 7 9 9 8 7 7 6 7 9 10 11 9 10 11 11 11 11 11 11 11 11 12 12 12 12 12 12 12 12 12 12 12 11 12 12 12 11
2 2 1 3 6 6 6 6 6 7 6 7 9 10 9 9 10 8 5 8 9 9 10 10 10 10 10 10 11 11 11 11 11 11 12 12 12 12 12 12 12 12 11 11 11 11 11 11 11
2 2 0 3 6 5 5 5 6 8 8 7 9 10 7 7 7 6 6 6 8 8 9 9 10 10 9 9 10 10 11 11 10 10 10 11 11 11 12 12 12 11 11 10 10 10 11 10 10
2 2 1 4 5 5 5 4 5 6 7 6 5 9 8 7 6 5 5 6 7 7 8 8 8 8 8 9 9 9 9 9 9 9 8 9 10 10 11 11 11 11 10 10 10 10 9 9 9
2 1 1 3 4 5 5 5 5 6 6 5 4 6 8 8 7 5 5 6 5 5 5 6 7 7 7 7 7 8 8 7 7 6 6 7 8 8 9 9 10 10 9 9 8 8 7 6 6
2 1 0 2 3 4 5 5 4 5 6 6 7 9 11 10 8 6 5 5 5 5 4 4 5 5 6 7 7 6 6 5 4 4 4 4 2 4 5 8 8 8 7 7 6 5 4 3 3
2 0 1 2 3 4 4 4 3 4 6 6 8 11 11 8 7 5 5 5 5 4 4 3 4 4 5 5 5 3 3 3 2 2 3 2 2 3 5 6 6 6 5 4 3 2 1 1 0
2 2 1 3 4 4 3 3 2 2 3 5 9 10 9 8 6 5 5 5 5 4 3 4 3 4 5 3 3 2 2 1 1 3 3 3 3 2 3 2 2 2 2 1 1 0 0 1 2
2 2 1 3 3 3 2 2 2 2 3 6 9 10 9 8 7 5 4 5 5 5 3 3 3 3 5 4 3 2 2 2 2 2 3 2 1 2 2 2 1 1 1 2 1 1 3 3 4
3 2 3 3 2 2 2 2 2 3 4 7 9 9 8 7 6 6 5 5 6 7 5 3 2 2 3 4 2 3 2 2 3 2 2 3 2 2 2 2 2 2 2 2 2 3 3 4 4
2 3 2 2 3 3 3 3 2 3 5 7 8 8 7 6 6 6 5 4 5 6 6 4 3 2 3 4 2 3 3 2 3 2 1 3 2 2 2 2 2 2 2 2 2 3 3 3 3
4 4 4 4 5 4 3 4 5 6 7 8 8 8 7 6 6 5 5 5 5 6 6 5 3 3 3 4 3 3 3 3 2 2 2 3 3 3 2 2 2 2 2 3 3 3 3 3 3
6 6 5 6 6 6 6 4 4 6 7 7 7 7 7 6 6 5 5 5 5 5 6 6 4 3 4 4 3 2 3 3 2 2 2 2 3 4 3 2 2 2 3 2 2 2 3 3 2
8 7 7 7 7 6 6 4 5 7 7 7 7 8 8 7 6 6 5 5 5 5 6 7 5 4 4 4 3 3 3 3 2 2 2 2 3 4 3 2 2 3 2 2 2 3 2 2 2
6 6 6 5 7 7 6 5 6 8 8 7 8 8 9 9 8 7 6 6 5 4 4 6 6 5 4 3 3 2 3 2 2 2 1 3 3 4 3 1 2 3 2 2 2 3 3 2 1
6 6 5 3 5 6 7 7 6 7 8 8 8 7 8 8 9 8 7 6 5 5 4 5 6 5 4 2 2 2 1 1 1 1 2 3 3 3 3 2 3 3 2 2 2 2 3 2 2
8 7 7 4 5 5 6 7 6 7 9 7 7 7 7 7 9 8 8 6 5 5 5 4 5 6 5 3 2 2 2 1 1 1 2 2 2 3 2 2 2 2 2 2 2 2 2 1 2
9 8 6 5 4 7 7 8 9 8 9 8 7 6 5 7 8 10 9 8 6 5 6 5 5 6 5 5 3 2 2 1 1 1 1 1 2 2 2 2 2 1 1 1 1 1 1 1 2
7 6 6 7 6 5 7 6 5 7 7 8 7 5 5 5 6 8 9 8 8 6 6 6 6 6 5 5 4 4 3 2 2 2 1 1 1 2 1 1 1 1 1 1 0 1 1 1 1
5 5 7 8 8 9 8 8 4 7 7 7 7 7 6 6 6 7 8 7 8 7 6 6 5 6 6 5 4 4 3 2 2 2 2 1 1 1 1 1 1 1 1 1 1 1 1 1 0
5 7 9 9 7 9 10 8 3 4 6 7 6 6 6 6 6 6 7 7 6 6 5 5 5 5 5 5 5 5 4 3 3 3 2 2 1 1 1 1 1 1 1 1 1 1 1 1 1
7 6 4 5 6 7 6 5 1 3 6 6 6 5 5 5 5 6 7 7 6 6 5 5 5 5 5 6 5 5 5 4 4 3 3 2 1 1 1 1 1 1 1 1 1 1 1 1 1
8 9 5 4 4 3 3 3 3 8 7 5 5 5 4 4 5 6 6 6 6 6 5 5 6 5 5 5 5 5 5 3 2 3 3 2 2 2 1 1 1 1 2 2 2 1 1 1 1
8 8 9 8 9 7 4 3 5 7 6 5 5 4 4 4 5 6 7 7 6 6 5 5 6 6 5 5 4 4 4 4 3 3 3 2 2 2 2 1 2 2 2 1 1 1 1 1 1
9 7 5 5 5 7 6 4 4 7 6 6 5 4 4 4 5 5 6 6 6 6 5 5 5 6 6 5 4 3 3 4 4 3 3 3 2 2 2 2 2 2 1 1 1 1 1 1 1
9 9 8 5 6 5 5 1 3 5 6 5 4 4 3 3 4 5 5 5 5 5 5 5 4 5 5 5 5 5 4 3 4 3 3 3 2 3 3 2 2 2 1 1 1 0 0 1 1
7 9 8 6 6 6 5 1 3 4 4 4 4 4 3 3 2 4 5 5 5 5 5 5 4 4 4 4 4 4 4 4 3 3 3 3 3 3 3 2 2 1 1 1 1 1 1 1 1
Wind_Direction
253 240 239 256 257 166 71 69 72 68 64 56 47 61 67 53 55 89 117 83 93 94 89 74 61 61 63 65 65 64 64 67 69 71 71 70 66 64 63 62 61 61 60 60 62 64 64 61 59
268 257 263 243 257 96 79 78 74 73 80 87 67 67 73 68 76 94 100 89 96 94 89 77 68 66 65 66 67 67 65 68 71 72 70 68 66 65 65 65 63 62 61 61 63 63 63 61 58
262 261 267 265 25 71 88 88 92 89 76 70 77 62 60 70 80 97 115 112 97 93 91 84 76 72 69 67 67 67 69 70 72 72 72 70 68 68 67 67 65 63 62 62 62 63 63 60 57
257 254 243 22 69 69 91 102 104 101 86 68 82 80 73 64 83 106 124 112 101 99 99 95 86 81 76 71 71 71 72 72 73 74 73 73 71 70 69 68 65 64 64 63 64 65 64 59 55
244 264 232 90 80 83 88 98 104 94 85 76 79 88 86 82 97 108 110 103 102 103 109 109 98 91 85 79 77 76 75 75 75 75 75 74 72 71 69 67 66 65 65 65 65 66 64 60 55
261 247 176 111 102 98 93 99 98 95 97 96 102 103 98 108 108 111 108 104 108 112 114 119 115 105 95 88 85 83 80 78 78 77 77 77 76 73 71 69 68 67 67 67 67 68 65 60 55
272 287 174 121 109 104 97 87 83 89 88 83 97 105 117 121 116 118 116 106 105 112 121 132 138 127 112 100 96 93 91 87 84 82 84 88 86 82 77 72 69 68 67 68 70 71 70 63 56
283 300 120 108 114 102 97 89 75 86 86 77 71 104 126 134 138 127 118 109 108 111 116 127 131 139 135 120 109 108 105 102 98 95 95 98 96 92 87 81 75 73 73 73 72 72 72 70 57
266 281 54 96 108 110 114 109 98 97 99 88 68 86 120 137 140 136 133 123 111 109 115 116 121 126 128 128 127 131 130 128 124 122 123 116 107 101 88 85 90 85 83 81 78 80 79 79 65
197 60 38 72 95 112 116 112 122 129 121 111 103 106 121 135 144 148 146 132 126 124 120 110 109 112 110 105 126 146 134 140 156 124 119 114 85 83 90 95 100 103 100 94 88 89 78 4 71
159 126 76 77 86 104 110 112 129 126 123 136 133 133 138 146 151 157 145 129 127 117 104 107 114 108 104 107 116 112 113 124 90 80 89 86 88 103 106 120 122 128 129 93 83 119 325 43 55
167 131 130 104 96 115 126 131 121 100 86 112 128 140 149 157 160 158 140 134 127 111 101 99 90 108 113 111 111 108 96 94 76 69 90 84 71 71 75 81 68 65 59 47 33 20 37 39 55
172 161 136 126 145 157 158 154 118 111 103 117 132 144 153 160 161 155 147 143 131 124 121 109 95 93 105 100 99 99 77 71 81 52 75 84 78 75 66 70 56 42 38 37 21 40 41 39 37
152 163 162 173 188 196 184 183 176 154 147 143 147 153 160 164 164 157 150 144 134 130 130 122 114 99 97 101 99 95 97 80 72 55 60 89 83 81 76 78 69 45 29 29 37 53 45 44 38
184 185 197 206 206 202 208 211 199 173 172 168 168 160 164 167 163 159 153 145 137 130 127 119 116 97 88 90 85 86 87 83 71 47 25 61 73 75 69 72 68 53 38 35 41 46 51 54 45
213 216 211 204 204 198 219 227 193 175 176 177 177 164 166 168 165 161 155 144 137 135 132 127 125 111 94 88 88 88 89 81 77 60 26 45 62 74 71 62 60 64 56 44 42 51 44 45 43
220 221 214 197 200 199 210 219 175 175 183 182 184 172 172 169 172 164 156 144 139 137 136 133 128 113 103 95 92 77 82 77 74 58 33 47 54 68 70 59 53 64 59 43 37 51 51 44 42
227 225 226 203 187 206 218 218 186 186 193 196 193 185 178 175 175 161 154 145 139 134 138 135 132 122 114 102 93 76 72 68 75 69 42 47 53 68 71 59 61 63 58 40 38 49 43 35 24
266 269 264 231 185 215 234 230 210 193 199 209 203 195 182 175 166 157 153 152 151 150 147 136 134 127 118 106 103 104 97 83 61 65 54 54 47 58 61 47 57 55 55 42 45 53 42 25 25
256 257 259 240 196 225 244 250 226 216 205 208 205 194 183 173 164 159 157 159 164 154 157 146 134 131 127 128 130 133 125 121 105 67 58 58 55 60 53 58 69 65 59 42 47 57 40 0 6
254 262 265 271 237 241 252 249 227 212 209 199 204 194 185 180 172 163 162 164 162 163 162 155 145 138 135 133 125 124 107 98 99 102 82 56 66 62 56 47 70 78 78 76 41 53 71 11 342
255 271 280 275 269 255 237 264 228 201 196 187 184 182 183 181 174 160 163 164 163 170 160 157 154 144 145 143 144 147 140 143 148 143 145 147 117 93 74 56 86 103 89 88 34 72 53 51 342
264 274 274 270 269 271 256 258 233 186 185 179 179 183 181 176 175 163 162 164 163 167 161 158 155 149 151 146 147 154 148 158 146 138 139 147 123 115 115 82 48 60 79 88 50 41 48 59 24
259 260 254 250 257 257 250 247 243 190 172 165 167 173 178 174 172 166 158 153 155 153 153 150 156 155 154 154 160 160 159 165 152 149 149 150 140 146 147 114 88 71 73 76 67 41 51 33 9
233 247 251 230 223 240 229 230 205 110 114 128 142 154 162 159 158 157 153 151 150 150 154 159 161 166 165 169 172 167 168 173 166 165 165 160 155 148 180 148 133 101 92 76 60 47 45 23 10
229 236 246 266 266 283 256 232 123 110 104 103 122 133 136 150 153 150 150 148 153 157 161 171 171 173 172 176 175 165 165 161 159 162 154 153 151 153 159 135 118 87 67 65 65 48 22 16 24
241 237 254 276 286 283 244 182 136 127 129 134 128 129 142 154 154 156 152 151 156 161 170 181 175 173 171 174 171 166 166 154 159 164 148 145 151 150 137 138 120 98 74 64 73 62 34 19 28
242 264 265 258 269 271 264 238 172 157 153 148 144 145 145 145 151 155 155 158 162 165 171 177 171 169 170 173 170 165 159 154 158 157 157 155 152 141 143 149 144 137 130 127 93 61 34 13 2
226 234 246 253 258 272 282 324 87 132 141 147 148 138 135 139 147 151 149 157 159 162 165 173 177 168 167 170 168 167 169 165 163 161 164 157 152 158 156 157 152 145 143 140 127 186 250 259 271
251 244 245 250 261 264 274 283 68 94 118 129 130 126 127 127 129 141 145 145 152 162 169 170 172 170 167 166 162 166 168 167 167 169 169 168 167 165 159 153 154 165 162 169 182 236 256 246 243